H1 CPF 2 isr 2024 3 1 22 61 1 irnss1f NONE
H2 1601501 3306 41384 2024 3 1 23 59 42 2024 3 8 23 44 42 900 1 1 0 0 0 1
H9
10 0 60377  21582.000000  0      35493061.525      22607832.324        558738.126
10 0 60377  22482.000000  0      35489392.017      22612725.991        399477.097
10 0 60377  23382.000000  0      35485470.048      22617557.932        238482.364
10 0 60377  24282.000000  0      35481268.711      22622349.808         76450.896
10 0 60377  25182.000000  0      35476768.274      22627128.718        -85915.625
10 0 60377  26082.000000  0      35471956.911      22631926.265       -247913.899
10 0 60377  26982.000000  0      35466831.281      22636777.527       -408842.108
10 0 60377  27882.000000  0      35461396.953      22641719.951       -568003.009
10 0 60377  28782.000000  0      35455668.654      22646792.191       -724707.020
10 0 60377  29682.000000  0      35449670.346      22652032.920       -878275.253
10 0 60377  30582.000000  0      35443435.127      22657479.629      -1028042.520
10 0 60377  31482.000000  0      35437004.945      22663167.436      -1173360.259
10 0 60377  32382.000000  0      35430430.157      22669127.943      -1313599.396
10 0 60377  33282.000000  0      35423768.899      22675388.137      -1448153.108
10 0 60377  34182.000000  0      35417086.322      22681969.385      -1576439.491
10 0 60377  35082.000000  0      35410453.666      22688886.519      -1697904.109
10 0 60377  35982.000000  0      35403947.216      22696147.045      -1812022.416
10 0 60377  36882.000000  0      35397647.141      22703750.473      -1918302.046
10 0 60377  37782.000000  0      35391636.247      22711687.804      -2016284.945
10 0 60377  38682.000000  0      35385998.653      22719941.164      -2105549.344
10 0 60377  39582.000000  0      35380818.412      22728483.629      -2185711.558
10 0 60377  40482.000000  0      35376178.114      22737279.210      -2256427.631
10 0 60377  41382.000000  0      35372157.485      22746283.005      -2317394.808
10 0 60377  42282.000000  0      35368832.018      22755441.525      -2368352.798
10 0 60377  43182.000000  0      35366271.643      22764693.183      -2409084.853
10 0 60377  44082.000000  0      35364539.460      22773968.952      -2439418.645
10 0 60377  44982.000000  0      35363690.572      22783193.176      -2459226.958
10 0 60377  45882.000000  0      35363771.019      22792284.522      -2468428.165
10 0 60377  46782.000000  0      35364816.852      22801157.050      -2466986.514
10 0 60377  47682.000000  0      35366853.340      22809721.404      -2454912.216
10 0 60377  48582.000000  0      35369894.349      22817886.085      -2432261.321
10 0 60377  49482.000000  0      35373941.886      22825558.789      -2399135.405
10 0 60377  50382.000000  0      35378985.828      22832647.802      -2355681.065
10 0 60377  51282.000000  0      35385003.828      22839063.412      -2302089.208
10 0 60377  52182.000000  0      35391961.421      22844719.322      -2238594.169
10 0 60377  53082.000000  0      35399812.312      22849534.037      -2165472.631
10 0 60377  53982.000000  0      35408498.845      22853432.214      -2083042.383
10 0 60377  54882.000000  0      35417952.660      22856345.927      -1991660.895
10 0 60377  55782.000000  0      35428095.504      22858215.856      -1891723.735
10 0 60377  56682.000000  0      35438840.211      22858992.352      -1783662.834
10 0 60377  57582.000000  0      35450091.814      22858636.377      -1667944.590
10 0 60377  58482.000000  0      35461748.780      22857120.300      -1545067.850
10 0 60377  59382.000000  0      35473704.352      22854428.524      -1415561.747
10 0 60377  60282.000000  0      35485847.970      22850557.949      -1279983.422
10 0 60377  61182.000000  0      35498066.754      22845518.248      -1138915.637
10 0 60377  62082.000000  0      35510247.020      22839331.959       -992964.282
10 0 60377  62982.000000  0      35522275.810      22832034.384       -842755.792
10 0 60377  63882.000000  0      35534042.411      22823673.306       -688934.488
10 0 60377  64782.000000  0      35545439.832      22814308.512       -532159.844
10 0 60377  65682.000000  0      35556366.226      22804011.142       -373103.693
10 0 60377  66582.000000  0      35566726.227      22792862.868       -212447.395
10 0 60377  67482.000000  0      35576432.184      22780954.912        -50878.963
10 0 60377  68382.000000  0      35585405.273      22768386.929        110909.841
10 0 60377  69282.000000  0      35593576.463      22755265.757        272226.411
10 0 60377  70182.000000  0      35600887.337      22741704.067        432380.214
10 0 60377  71082.000000  0      35607290.733      22727818.925        590685.696
10 0 60377  71982.000000  0      35612751.219      22713730.291        746465.159
10 0 60377  72882.000000  0      35617245.374      22699559.483        899051.621
10 0 60377  73782.000000  0      35620761.888      22685427.624       1047791.616
10 0 60377  74682.000000  0      35623301.470      22671454.096       1192047.953
10 0 60377  75582.000000  0      35624876.574      22657755.031       1331202.401
10 0 60377  76482.000000  0      35625510.940      22644441.855       1464658.306
10 0 60377  77382.000000  0      35625238.971      22631619.921       1591843.112
10 0 60377  78282.000000  0      35624104.926      22619387.214       1712210.777
10 0 60377  79182.000000  0      35622162.008      22607833.231       1825244.116
10 0 60377  80082.000000  0      35619471.307      22597037.965       1930457.015
10 0 60377  80982.000000  0      35616100.621      22587071.038       2027396.500
10 0 60377  81882.000000  0      35612123.208      22577990.998       2115644.692
10 0 60377  82782.000000  0      35607616.457      22569844.801       2194820.602
10 0 60377  83682.000000  0      35602660.480      22562667.488       2264581.785
10 0 60377  84582.000000  0      35597336.722      22556482.036       2324625.847
10 0 60377  85482.000000  0      35591726.587      22551299.397       2374691.781
99